Regional Weather Roundup
Issued by NWS

Current Version | Previous Version | Text Only | Print | Product List | Glossary On
Versions: 1 2 3 4 5 6 7 8 9 10 11 12 13 14 15 16 17 18 19 20 21 22 23 24 25 26 27 28 29 30 31 32 33 34 35 36 37 38 39 40 41 42 43 44 45 46 47 48 49 50
000
ASUS44 KFWD 281815
RWRTX
NORTH TEXAS HOURLY WEATHER ROUNDUP
NATIONAL WEATHER SERVICE FORT WORTH TX
100 PM CDT THU JUL 28 2016

NOTE: "FAIR" INDICATES FEW OR NO CLOUDS BELOW 12,000 FEET WITH NO
SIGNIFICANT WEATHER AND/OR OBSTRUCTIONS TO VISIBILITY.

TXZ118-119-281900-
DALLAS/FORT WORTH METROPLEX

CITY           SKY/WX    TMP DP  RH WIND       PRES   REMARKS
DFW AIRPORT    MOSUNNY   93  71  48 S9        29.96F HX 100
6HR MIN TEMP:  79; 6HR MAX TEMP:  93;

DALLAS LOVE    MOSUNNY   91  71  51 SW8       29.96F HX  97
6HR MIN TEMP:  81; 6HR MAX TEMP:  92;

FTW MEACHAM    MOSUNNY   95  69  42 W8        29.96F HX 100
6HR MIN TEMP:  78; 6HR MAX TEMP:  95;

DAL-EXECUTIVE  MOSUNNY   91  71  51 CALM      29.97F HX  97
6HR MIN TEMP:  78; 6HR MAX TEMP:  91;

FTW-ALLIANCE   MOSUNNY   93  68  43 VRB5      29.96F HX  97
6HR MIN TEMP:  74; 6HR MAX TEMP:  95;

FTW-NAS-JRB    MOSUNNY   95  68  41 VRB6      29.96F HX  99
6HR MIN TEMP:  78; 6HR MAX TEMP:  95;

FTW-SPINKS     MOSUNNY   93  72  49 SW8       29.99F HX 100
ARLINGTON      MOSUNNY   91  71  51 SW8       29.97F HX  97
6HR MIN TEMP:  78; 6HR MAX TEMP:  91;

GRAND PRAIRIE  SUNNY     91  70  49 S9        29.99F HX  97
ADDISON        SUNNY     91  70  49 SW6       29.97F HX  97
MESQUITE       MOSUNNY   91  70  49 SW9       29.98F HX  97
LANCASTER      SUNNY     92  73  53 S3        29.98F HX 100
6HR MIN TEMP:  78; 6HR MAX TEMP:  92;

$$

TXZ091>094-102>105-117-120-121-131>134-281900-
NORTH CENTRAL TEXAS

CITY           SKY/WX    TMP DP  RH WIND       PRES   REMARKS
SHRMAN/DENISON MOSUNNY   93  71  48 CALM      29.97F HX  99
6HR MIN TEMP:  77; 6HR MAX TEMP:  93;

GAINESVILLE    SUNNY     89  70  53 E3        29.98F HX  95
6HR MIN TEMP:  74; 6HR MAX TEMP:  90; 6HR PCP:  0.02;

BOWIE          MOSUNNY   91  72  53 CALM      29.98F HX  97
6HR MIN TEMP:  74; 6HR MAX TEMP:  91;

BRIDGEPORT     SUNNY     91  72  52 SE5       29.98F HX  98
6HR MIN TEMP:  71; 6HR MAX TEMP:  91;

DECATUR        SUNNY     89  70  53 SW6       29.98F HX  94
6HR MIN TEMP:  74; 6HR MAX TEMP:  89;

DENTON         SUNNY     90  71  53 S6        29.96F HX  96
6HR MIN TEMP:  75; 6HR MAX TEMP:  90;

MCKINNEY       SUNNY     90  71  53 SW8       29.97F HX  96
6HR MIN TEMP:  75; 6HR MAX TEMP:  90;

GREENVILLE     MOSUNNY   91  70  49 SW10      29.98F HX  97
ROCKWALL       CLOUDY    90  72  56 SW8       29.96F HX  97
6HR MIN TEMP:  78; 6HR MAX TEMP:  90;

TERRELL          N/A     92  70  48 SW13      29.98F HX  97
6HR MIN TEMP:  77; 6HR MAX TEMP:  93;

WAXAHACHIE     CLOUDY    87  73  63 SW10      30.00F HX  94
6HR MIN TEMP:  75; 6HR MAX TEMP:  88;

CLEBURNE       MOSUNNY   91  75  59 VRB6G13   30.00F HX 102
GRANBURY       PTSUNNY   93  67  42 SW9       29.99F HX  97
6HR MIN TEMP:  78; 6HR MAX TEMP:  93;

$$

TXZ083>090-098>101-113>116-127>130-139>142-154-155-281900-
WESTERN NORTH TEXAS

CITY           SKY/WX    TMP DP  RH WIND       PRES   REMARKS
WICHITA FALLS  SUNNY     94  69  44 NE6       29.96F HX  99
6HR MIN TEMP:  71; 6HR MAX TEMP:  94;

WF-KICKAPOO    SUNNY     94  68  42 E8        29.97F HX  98
6HR MIN TEMP:  75; 6HR MAX TEMP:  94;

VERNON         SUNNY     92  65  39 E5        29.99F HX  94
6HR MIN TEMP:  74; 6HR MAX TEMP: 100;

ABILENE        MOSUNNY   91  67  44 VRB5      30.04F HX  94
6HR MIN TEMP:  71; 6HR MAX TEMP:  91;

ABILENE-DYESS  MOSUNNY   93  67  43 S7        30.01  HX  96
6HR MIN TEMP:  72; 6HR MAX TEMP:  94;

CISCO          MOSUNNY   90  70  51 SW8       30.04F HX  95
BRECKENRIDGE   SUNNY     94  66  39 SW9       29.98F HX  97
6HR MIN TEMP:  74; 6HR MAX TEMP:  94;

GRAHAM         SUNNY     94  69  44 SW3       29.96F HX  99
6HR MIN TEMP:  72; 6HR MAX TEMP:  94;

MINERAL WELLS  SUNNY     93  71  48 MISG      29.97F HX 100
6HR MIN TEMP:  71; 6HR MAX TEMP:  93;

STEPHENVILLE   MOSUNNY   90  68  47 SW8       30.04F HX  94
6HR MIN TEMP:  74; 6HR MAX TEMP:  91;

COMANCHE       CLOUDY    87  72  61 SW5       30.04F HX  93
6HR MIN TEMP:  73; 6HR MAX TEMP:  87;

BROWNWOOD      LGT RAIN  90  70  51 CALM      30.03F HX  95
COLEMAN        MOSUNNY   88  65  47 SW5       30.05F
6HR MIN TEMP:  73; 6HR MAX TEMP:  88;

$$

TXZ143>147-156>162-174-175-281900-
CENTRAL TEXAS

CITY           SKY/WX    TMP DP  RH WIND       PRES   REMARKS
WACO           MOSUNNY   92  70  48 VRB7      29.99F HX  97
6HR MIN TEMP:  78; 6HR MAX TEMP:  93;

WACO-MCGREGOR  MOSUNNY   93  73  52 W9        29.99F HX 102
6HR MIN TEMP:  76; 6HR MAX TEMP:  93;

HILLSBORO      PTSUNNY   89  71  54 SW9       30.00F HX  95
6HR MIN TEMP:  77; 6HR MAX TEMP:  90;

CORSICANA      CLOUDY    90  72  55 NW8       30.00F HX  97
6HR MIN TEMP:  80; 6HR MAX TEMP:  92;

MEXIA          MOSUNNY   91  72  52 SW10      29.99F HX  98
6HR MIN TEMP:  75; 6HR MAX TEMP:  91;

HEARNE         MOSUNNY   94  72  49 S5        29.99F HX 102
6HR MIN TEMP:  74; 6HR MAX TEMP:  94;

CAMERON        MOSUNNY   94  72  47 SW7G24    29.98F HX 101
6HR MIN TEMP:  76; 6HR MAX TEMP:  94;

TEMPLE         MOSUNNY   94  71  47 SW13      30.00F HX 101
6HR MIN TEMP:  75; 6HR MAX TEMP:  94;

KILLEEN        NOT AVBL
KILLEEN-SKYLRK MOSUNNY   93  69  45 SW9       30.00F HX  98
6HR MIN TEMP:  76; 6HR MAX TEMP:  93;

GATESVILLE     SUNNY     91  68  46 CALM      30.02F HX  95
HAMILTON       CLOUDY    87  71  59 W5        30.04F HX  93
6HR MIN TEMP:  75; 6HR MAX TEMP:  87;

LAMPASAS       SUNNY     91  72  54 SW5       30.02F HX  98
6HR MIN TEMP:  76; 6HR MAX TEMP:  91;

$$

TXZ095>097-106>112-122>126-135>138-148>153-164>167-281900-
EAST TEXAS

CITY           SKY/WX    TMP DP  RH WIND       PRES   REMARKS
PARIS          CLOUDY    88  68  51 SW6       29.98F HX  91
6HR MIN TEMP:  75; 6HR MAX TEMP:  88; 6HR PCP:  0.07;

SULPHUR SPRNGS CLOUDY    90  72  55 S12       30.00F HX  96
6HR MIN TEMP:  78; 6HR MAX TEMP:  90; 6HR PCP:  0.03;

MOUNT PLEASANT CLOUDY    86  72  62 SW5       30.00F HX  92
6HR MIN TEMP:  75; 6HR MAX TEMP:  86;

GILMER         CLOUDY    85  75  72 W7        29.99F THUNDER HX  94
6HR MIN TEMP:  75; 6HR MAX TEMP:  85;

MINEOLA        PTSUNNY   90  73  58 SE7       30.00F HX  98
TYLER          MOSUNNY   84  70  62 W12       30.00F
6HR MIN TEMP:  78; 6HR MAX TEMP:  86;

LONGVIEW       CLOUDY    88  76  67 W12       29.98F THUNDER HX  99
6HR MIN TEMP:  78; 6HR MAX TEMP:  89;

MARSHALL       CLOUDY    74  71  91 CALM      30.01F
6HR MIN TEMP:  73; 6HR MAX TEMP:  79; 6HR PCP:  0.31;

ATHENS         CLOUDY    84  73  70 SE3       29.98F HX  91
PALESTINE      SUNNY     91  73  56 SW10      30.00F HX  99
JACKSONVILLE   PTSUNNY   90  72  55 W9G16     30.03S HX  97
HENDERSON      CLOUDY    88  75  65 SW5       30.00F HX  97
6HR MIN TEMP:  77; 6HR MAX TEMP:  88;

CENTER         CLOUDY    88  78  72 CALM      30.01F HX 101
6HR MIN TEMP:  80; 6HR MAX TEMP:  89;

NACOGDOCHES    PTSUNNY  N/A N/A N/A W5        29.98F
LUFKIN         PTSUNNY   91  76  61 W10       29.99F HX 103
6HR MIN TEMP:  76; 6HR MAX TEMP:  91;

$$

SUPPLEMENTAL OBSERVATIONS (CENTRAL)

CITY           SKY/WX    TMP DP  RH WIND       PRES   REMARKS
DENISON DAM      N/A     90  72  55 W1          N/A  HX  96
CADDO GRASSLND   N/A     93  72  49 SW5         N/A  HX 100
PAT MAYSE LAKE   N/A     84  75  74 S6          N/A  HX  92
GREENVILLE       N/A     90  70  51 SW8G16      N/A  HX  95
CEDAR HILL       N/A     91  72  52 SW6         N/A  HX  98
ATHENS           N/A     84  75  74 S3          N/A  HX  92
LAKE LIMESTONE   N/A     91  73  55 SW9         N/A  HX 100
MCGREGOR         N/A     93  73  52 W7          N/A  HX 102
TEMPLE           N/A     93  68  43 W7          N/A  HX  97
$$

SUPPLEMENTAL OBSERVATIONS (WEST)

CITY           SKY/WX    TMP DP C1F1C2F2C3F3C4F4C5F5C6F6C7F7C8F8C9!


USA.gov is the U.S. government's official web portal to all federal, state and local government web resources and services.